Total_Precipitation_Accumulation
0.65 0.37 0.39 0.37 0.31 0.34 0.33 0.35 0.39 0.39 0.36 0.32 0.26 0.22 0.20 0.22 0.22 0.22 0.23 0.25 0.33 0.46 0.56 0.63 0.69 0.69 0.70 0.71 0.74 0.74 0.65 0.58 0.60 0.73 0.83 0.82 0.84 0.96 1.01 0.99 1.01 0.91 0.81
0.50 0.34 0.43 0.39 0.35 0.35 0.35 0.40 0.41 0.43 0.41 0.38 0.31 0.26 0.24 0.23 0.23 0.27 0.29 0.32 0.41 0.49 0.53 0.63 0.67 0.65 0.60 0.55 0.55 0.57 0.52 0.54 0.63 0.81 0.96 0.94 1.04 1.19 1.23 1.18 1.42 1.32 0.90
0.35 0.31 0.41 0.41 0.37 0.39 0.38 0.41 0.46 0.48 0.46 0.44 0.39 0.33 0.31 0.31 0.31 0.34 0.37 0.43 0.53 0.58 0.58 0.63 0.68 0.63 0.56 0.47 0.46 0.48 0.53 0.59 0.80 1.03 1.41 1.49 1.43 1.48 1.35 1.25 1.28 1.19 0.92
0.37 0.45 0.47 0.40 0.37 0.40 0.41 0.45 0.47 0.50 0.53 0.53 0.50 0.39 0.35 0.37 0.41 0.42 0.43 0.48 0.58 0.70 0.68 0.61 0.62 0.59 0.51 0.46 0.47 0.48 0.55 0.65 1.00 1.36 1.85 1.82 1.90 1.98 1.61 1.36 1.31 1.21 1.08
0.47 0.60 0.56 0.45 0.43 0.43 0.48 0.47 0.49 0.52 0.56 0.58 0.58 0.51 0.44 0.39 0.40 0.44 0.51 0.58 0.64 0.73 0.93 0.80 0.66 0.61 0.52 0.48 0.49 0.54 0.62 0.77 1.13 1.49 1.93 2.28 2.62 2.56 1.85 1.50 1.42 1.36 1.22
0.52 0.57 0.56 0.54 0.51 0.50 0.53 0.53 0.57 0.62 0.61 0.59 0.60 0.60 0.56 0.47 0.46 0.50 0.62 0.69 0.71 0.73 0.87 1.04 0.88 0.79 0.67 0.56 0.55 0.59 0.73 0.95 1.11 1.41 2.14 2.59 2.65 2.51 1.94 1.62 1.52 1.59 1.48
0.58 0.60 0.70 0.75 0.78 0.77 0.72 0.70 0.72 0.72 0.70 0.67 0.63 0.65 0.68 0.59 0.56 0.63 0.73 0.79 0.82 0.86 0.91 0.94 0.87 0.89 0.79 0.65 0.61 0.64 0.80 1.02 1.13 1.55 2.15 2.62 2.57 2.38 2.08 1.88 1.76 1.75 1.68
0.69 0.76 0.91 1.06 1.15 1.04 0.92 0.86 0.86 0.77 0.73 0.75 0.73 0.72 0.76 0.71 0.68 0.69 0.80 0.90 1.01 1.06 1.05 1.01 0.94 0.91 0.95 0.84 0.74 0.73 0.85 0.98 1.02 1.43 1.93 2.25 2.22 2.10 2.15 2.01 1.93 1.81 1.70
1.05 1.14 1.12 1.06 1.06 1.09 1.02 0.92 0.95 0.89 0.83 0.85 0.88 0.82 0.83 0.81 0.78 0.81 0.96 1.05 1.06 1.00 1.02 1.05 1.09 0.99 0.91 0.88 0.82 0.81 0.90 1.07 1.21 1.39 1.71 2.08 2.03 2.18 2.32 2.11 1.91 1.88 1.85
1.79 2.05 1.55 1.23 1.08 0.98 0.98 1.03 1.06 1.09 1.04 0.97 0.99 0.94 0.93 0.96 0.97 1.01 1.04 1.09 1.09 1.07 1.06 1.10 1.17 1.12 1.03 0.94 0.87 0.85 0.96 1.05 0.99 1.31 1.81 1.94 2.01 2.34 2.66 2.49 2.18 2.03 1.92
2.20 2.40 1.84 1.48 1.33 1.24 1.24 1.26 1.30 1.31 1.26 1.18 1.15 1.13 1.15 1.27 1.44 1.45 1.25 1.29 1.20 1.19 1.20 1.17 1.17 1.13 1.19 1.20 1.17 1.12 1.11 1.05 1.31 1.55 1.78 1.96 2.23 2.57 2.81 2.74 2.42 2.20 2.09
2.27 2.10 1.99 1.91 1.68 1.54 1.50 1.64 1.67 1.57 1.57 1.43 1.55 1.49 1.58 1.94 2.04 1.76 1.74 1.70 1.56 1.48 1.47 1.48 1.48 1.42 1.33 1.34 1.49 1.54 1.29 1.25 1.51 1.75 1.91 2.01 2.31 2.78 2.98 2.79 2.57 2.47 2.40
2.95 2.44 2.24 2.08 2.01 1.89 1.98 2.15 2.20 2.18 2.17 1.97 2.07 2.01 2.07 2.17 2.09 2.07 2.11 1.99 1.99 1.90 1.98 2.08 1.92 1.69 1.54 1.59 1.68 1.69 1.56 1.57 1.62 1.78 1.96 2.15 2.40 2.86 3.12 2.93 2.65 2.61 2.63
3.19 2.99 2.52 2.42 2.54 2.74 2.76 2.66 2.56 2.51 2.55 2.47 2.52 2.35 2.42 2.47 2.46 2.37 2.42 2.31 2.41 2.34 2.42 2.39 2.30 2.16 2.01 1.84 1.79 1.88 1.94 1.90 1.80 1.90 2.20 2.31 2.35 2.66 3.10 3.11 2.89 2.79 2.80
3.19 3.05 2.86 3.03 3.16 3.22 3.19 3.13 2.88 2.81 3.01 2.99 2.97 2.83 2.80 2.69 2.58 2.54 2.50 2.54 2.45 2.60 2.71 2.74 2.50 2.34 2.25 2.09 1.93 1.94 2.08 2.07 2.13 2.16 2.29 2.35 2.21 2.41 2.92 3.31 3.32 3.31 3.27
3.05 3.27 3.36 3.50 3.41 3.28 3.28 3.40 3.38 3.18 3.33 3.52 3.62 3.46 3.19 3.04 2.97 2.92 2.99 2.98 2.72 2.74 2.87 3.04 2.91 2.72 2.40 2.22 2.08 2.08 2.09 2.06 2.15 2.29 2.38 2.46 2.37 2.32 2.73 3.24 3.53 3.69 3.69
3.20 3.29 3.50 3.39 3.58 3.68 3.65 3.62 3.59 3.49 3.52 3.65 3.81 3.88 3.49 3.21 3.31 3.30 3.43 3.41 3.05 2.98 3.13 3.27 3.29 3.15 2.71 2.39 2.30 2.33 2.33 2.41 2.30 2.32 2.53 2.61 2.51 2.47 2.66 2.82 3.08 3.35 3.54
3.26 3.63 3.68 3.28 3.69 3.89 3.86 3.77 3.55 3.62 3.86 4.01 4.04 4.16 3.83 3.46 3.38 3.50 3.39 3.24 3.17 3.23 3.47 3.71 3.66 3.56 3.29 2.98 2.77 2.52 2.38 2.43 2.40 2.50 2.51 2.58 2.84 2.71 2.65 2.48 2.57 2.84 3.18
3.61 4.05 3.85 3.55 3.75 3.89 3.96 4.00 3.76 3.85 4.16 4.30 4.38 4.30 3.94 3.56 3.50 3.67 3.69 3.64 3.54 3.57 3.64 3.56 3.77 3.62 3.64 3.41 2.93 2.71 2.55 2.46 2.47 2.50 2.54 2.53 2.67 2.78 2.71 2.49 2.45 2.60 2.78
3.90 4.56 4.14 3.70 3.68 3.99 4.02 3.90 3.88 4.02 4.30 4.56 4.54 4.33 4.13 4.00 3.84 3.95 3.90 3.93 3.98 4.06 3.91 3.88 3.93 3.68 3.50 3.42 3.03 2.82 2.64 2.47 2.45 2.41 2.33 2.35 2.45 2.40 2.45 2.44 2.52 2.37 2.47
3.81 4.26 4.25 4.04 4.05 4.10 4.15 3.96 4.13 4.34 4.62 4.87 4.76 4.64 4.57 4.49 4.42 4.44 4.46 4.44 4.29 4.19 4.06 3.92 3.84 3.70 3.46 3.30 3.25 2.90 2.47 2.14 2.02 1.97 2.01 2.09 2.10 2.10 2.21 2.39 2.54 2.46 2.27
3.49 3.71 4.03 4.19 4.21 3.96 4.27 4.57 4.84 5.19 5.22 5.50 5.75 5.80 5.62 5.33 5.13 4.97 4.94 4.67 4.35 4.19 4.04 3.85 3.72 3.55 3.24 3.14 3.11 3.12 2.65 2.22 1.82 1.60 1.70 1.71 1.76 1.94 2.04 2.00 2.10 2.14 2.05
3.31 3.60 3.93 4.27 4.39 4.28 4.71 5.22 5.63 6.00 5.95 5.99 6.02 6.02 5.96 5.53 5.15 4.94 4.74 4.58 4.37 4.20 4.03 3.91 3.77 3.62 3.31 3.11 3.03 3.22 3.06 2.63 2.11 1.83 1.67 1.67 1.76 1.86 1.85 1.82 1.82 1.81 1.84
3.11 3.41 3.66 4.08 4.50 4.77 5.14 5.62 6.15 6.48 6.71 6.59 6.25 5.97 5.59 5.15 4.76 4.37 4.19 4.25 4.14 3.96 3.74 3.45 3.31 3.28 3.19 3.03 2.94 2.81 2.79 2.72 2.53 2.22 1.96 1.94 1.97 1.93 1.85 1.81 1.88 1.96 1.96
2.87 3.14 3.46 3.83 4.25 4.86 5.62 6.21 6.62 6.98 7.00 6.47 5.94 5.36 4.90 4.54 4.20 3.90 3.75 3.84 3.76 3.53 3.34 3.08 2.87 2.73 2.72 2.76 2.75 2.67 2.59 2.54 2.39 2.25 2.07 1.98 1.95 1.88 1.81 1.78 1.85 1.95 1.97
2.63 2.89 3.27 3.72 4.11 4.65 5.39 6.03 6.32 6.52 6.47 6.03 5.41 4.87 4.44 3.97 3.60 3.26 3.00 2.94 2.86 2.69 2.60 2.56 2.48 2.46 2.46 2.49 2.50 2.42 2.37 2.36 2.32 2.33 2.20 1.98 1.94 1.99 1.91 1.78 1.69 1.69 1.71